| time (UTC) | temp F | wind direction | speed MPH | gust MPH | rain 1hr in | rain 24hr in | rain mn in | humidity % | barometer mb |
| 20260504231557 | 81 | 194 | 3.0 | 3.0 | 0.00 | 0.00 | 0.00 | 41 | 1009.0 |
| 20260504230030 | 81 | 201 | 0.0 | 0.0 | 0.00 | 0.00 | 0.00 | 44 | 1009.2 |
| 20260504224524 | 81 | 165 | 2.0 | 2.0 | 0.00 | 0.00 | 0.00 | 42 | 1009.3 |
| 20260504223038 | 81 | 137 | 3.0 | 3.0 | 0.00 | 0.00 | 0.00 | 44 | 1009.4 |
| 20260504221547 | 81 | 303 | 2.0 | 2.0 | 0.00 | 0.00 | 0.00 | 45 | 1009.4 |
| 20260504220036 | 81 | 185 | 3.0 | 3.0 | 0.00 | 0.00 | 0.00 | 44 | 1009.7 |
| 20260504214551 | 81 | 220 | 0.0 | 0.0 | 0.00 | 0.00 | 0.00 | 42 | 1009.8 |
| 20260504213021 | 80 | 231 | 3.0 | 3.0 | 0.00 | 0.00 | 0.00 | 45 | 1009.8 |
| 20260504211535 | 79 | 151 | 1.0 | 1.0 | 0.00 | 0.00 | 0.00 | 44 | 1009.8 |
| 20260504210046 | 79 | 284 | 0.0 | 0.0 | 0.00 | 0.00 | 0.00 | 44 | 1009.9 |
| 20260504204535 | 79 | 262 | 4.0 | 4.0 | 0.00 | 0.00 | 0.00 | 46 | 1009.8 |
| 20260504203032 | 79 | 141 | 5.0 | 5.0 | 0.00 | 0.00 | 0.00 | 50 | 1009.9 |
| 20260504201523 | 78 | 240 | 7.0 | 7.0 | 0.00 | 0.00 | 0.00 | 49 | 1009.9 |
| 20260504200100 | 77 | 160 | 1.0 | 1.0 | 0.00 | 0.00 | 0.00 | 47 | 1010.0 |
| 20260504194529 | 77 | 125 | 0.0 | 0.0 | 0.00 | 0.00 | 0.00 | 52 | 1010.1 |
| 20260504193039 | 76 | 119 | 3.0 | 3.0 | 0.00 | 0.00 | 0.00 | 52 | 1010.1 |
| 20260504191533 | 76 | 58 | 5.0 | 5.0 | 0.00 | 0.00 | 0.00 | 54 | 1010.2 |
| 20260504190044 | 76 | 63 | 3.0 | 3.0 | 0.00 | 0.00 | 0.00 | 55 | 1010.3 |
| 20260504184537 | 76 | 112 | 0.0 | 0.0 | 0.00 | 0.00 | 0.00 | 51 | 1010.4 |
| 20260504183028 | 76 | 115 | 1.0 | 1.0 | 0.00 | 0.00 | 0.00 | 53 | 1010.4 |
| 20260504181521 | 75 | 150 | 2.0 | 2.0 | 0.00 | 0.00 | 0.00 | 55 | 1010.5 |
| 20260504180030 | 74 | 344 | 3.0 | 3.0 | 0.00 | 0.00 | 0.00 | 53 | 1010.5 |
| 20260504174521 | 73 | 166 | 2.0 | 2.0 | 0.00 | 0.00 | 0.00 | 57 | 1010.4 |
| 20260504173036 | 72 | 100 | 0.0 | 0.0 | 0.00 | 0.00 | 0.00 | 58 | 1010.3 |
| 20260504171525 | 72 | 202 | 2.0 | 2.0 | 0.00 | 0.00 | 0.00 | 57 | 1010.3 |
| 20260504081519 | 49 | 336 | 0.0 | 0.0 | 0.00 | 0.00 | 0.00 | 88 | 1009.3 |
| 20260504050024 | 57 | 336 | 0.0 | 0.0 | 0.00 | 0.00 | 0.00 | 76 | 1009.4 |
| 20260504044535 | 58 | 336 | 0.0 | 0.0 | 0.00 | 0.00 | 0.00 | 74 | 1009.4 |
| 20260504043028 | 59 | 336 | 0.0 | 0.0 | 0.00 | 0.00 | 0.00 | 72 | 1009.3 |
| 20260504041522 | 61 | 336 | 0.0 | 0.0 | 0.00 | 0.00 | 0.00 | 69 | 1009.3 |
| 20260504040031 | 63 | 336 | 0.0 | 0.0 | 0.00 | 0.00 | 0.00 | 65 | 1009.3 |
| 20260504034529 | 66 | 336 | 0.0 | 0.0 | 0.00 | 0.00 | 0.00 | 62 | 1009.2 |
| 20260504033040 | 68 | 336 | 0.0 | 0.0 | 0.00 | 0.00 | 0.00 | 56 | 1009.1 |
| 20260504031535 | 70 | 5 | 0.0 | 0.0 | 0.00 | 0.00 | 0.00 | 56 | 1008.9 |
| 20260504030025 | 72 | 288 | 1.0 | 1.0 | 0.00 | 0.00 | 0.00 | 53 | 1009.2 |
| 20260504024556 | 74 | 286 | 0.0 | 0.0 | 0.00 | 0.00 | 0.00 | 47 | 1009.2 |
| 20260504023028 | 75 | 234 | 0.0 | 0.0 | 0.00 | 0.00 | 0.00 | 46 | 1009.2 |
| 20260504021539 | 76 | 322 | 0.0 | 0.0 | 0.00 | 0.00 | 0.00 | 44 | 1009.2 |
| 20260504020033 | 77 | 329 | 3.0 | 3.0 | 0.00 | 0.00 | 0.00 | 42 | 1009.3 |
| 20260504014523 | 78 | 253 | 3.0 | 3.0 | 0.00 | 0.00 | 0.00 | 41 | 1009.3 |
| 20260504013033 | 79 | 224 | 3.0 | 3.0 | 0.00 | 0.00 | 0.00 | 42 | 1009.3 |
| 20260504011528 | 79 | 324 | 1.0 | 1.0 | 0.00 | 0.00 | 0.00 | 41 | 1009.3 |
| 20260504010058 | 80 | 308 | 2.0 | 2.0 | 0.00 | 0.00 | 0.00 | 42 | 1009.6 |
| 20260504004552 | 79 | 265 | 5.0 | 5.0 | 0.00 | 0.00 | 0.00 | 45 | 1009.7 |
| 20260504003024 | 80 | 249 | 1.0 | 1.0 | 0.00 | 0.00 | 0.00 | 47 | 1009.8 |
| 20260504001555 | 80 | 311 | 12.0 | 12.0 | 0.00 | 0.00 | 0.00 | 47 | 1009.8 |
| 20260504000028 | 81 | 238 | 2.0 | 2.0 | 0.00 | 0.00 | 0.00 | 47 | 1009.8 |
| 20260503234558 | 81 | 180 | 2.0 | 2.0 | 0.00 | 0.00 | 0.00 | 49 | 1009.8 |
| 20260503233031 | 81 | 292 | 1.0 | 1.0 | 0.00 | 0.00 | 0.00 | 48 | 1009.9 |